Temp
-5 -5 -5 -5 -6 -5 -4 -5 -5 -5 -5 -5 -5 -4 -4 -4 -4 -4 -4 -4 -4 -4 -4 -4 -4 -4 -5 -5 -6 -6 -6 -6 -7 -8 -8 -8 -8 -8 -7 -7 -6 -6 -6 -6 -7 -7 -7 -6 -7 -8 -8 -7 -8 -8
-7 -7 -6 -5 -7 -6 -6 -5 -5 -6 -5 -6 -6 -6 -6 -5 -5 -5 -5 -5 -5 -4 -5 -5 -5 -6 -6 -6 -6 -7 -6 -7 -8 -9 -9 -9 -9 -9 -9 -9 -8 -8 -7 -8 -7 -7 -6 -7 -8 -8 -9 -10 -10 -10
-8 -8 -7 -7 -6 -6 -7 -7 -6 -7 -7 -7 -6 -6 -6 -6 -6 -6 -5 -5 -5 -6 -6 -6 -6 -7 -6 -7 -7 -7 -7 -8 -8 -9 -9 -10 -11 -11 -11 -10 -9 -9 -9 -10 -10 -8 -8 -8 -8 -9 -9 -10 -10 -11
-9 -8 -8 -9 -8 -8 -7 -7 -7 -7 -7 -7 -7 -7 -6 -7 -7 -7 -7 -7 -7 -7 -7 -7 -8 -8 -7 -7 -7 -7 -8 -9 -9 -9 -10 -12 -12 -12 -10 -11 -11 -11 -12 -11 -11 -10 -10 -10 -11 -11 -11 -11 -12 -12
-9 -9 -9 -10 -10 -10 -9 -8 -7 -8 -8 -8 -8 -7 -7 -8 -8 -8 -8 -8 -8 -8 -7 -7 -8 -8 -8 -8 -8 -9 -9 -10 -10 -10 -11 -11 -11 -12 -11 -11 -11 -10 -11 -12 -12 -12 -12 -12 -13 -13 -13 -13 -12 -12
-11 -10 -10 -10 -11 -11 -11 -11 -10 -9 -9 -9 -9 -9 -9 -9 -9 -9 -9 -9 -9 -9 -9 -9 -9 -9 -9 -9 -9 -9 -9 -10 -11 -12 -11 -12 -11 -13 -13 -13 -12 -12 -12 -13 -13 -13 -13 -13 -12 -13 -13 -12 -12 -12
-13 -12 -12 -12 -12 -11 -11 -11 -12 -13 -12 -11 -11 -11 -10 -10 -10 -10 -10 -10 -10 -10 -10 -10 -9 -10 -10 -10 -10 -10 -10 -11 -11 -12 -12 -12 -12 -14 -14 -14 -11 -13 -13 -13 -13 -13 -12 -12 -12 -12 -13 -13 -13 -13
-13 -13 -13 -13 -12 -12 -12 -12 -12 -12 -13 -13 -13 -12 -12 -11 -11 -11 -11 -11 -11 -11 -11 -11 -10 -11 -11 -11 -11 -11 -11 -11 -11 -12 -13 -12 -13 -14 -14 -12 -13 -13 -13 -13 -13 -13 -13 -13 -13 -13 -13 -13 -14 -13
-13 -14 -13 -13 -13 -13 -12 -12 -12 -13 -13 -14 -14 -14 -13 -12 -12 -12 -12 -12 -12 -12 -12 -11 -11 -11 -12 -12 -12 -12 -13 -12 -13 -13 -13 -13 -13 -13 -13 -14 -13 -13 -14 -13 -14 -14 -14 -13 -14 -14 -14 -13 -13 -13
-14 -14 -13 -13 -13 -13 -13 -13 -13 -13 -14 -14 -15 -14 -14 -13 -13 -13 -13 -13 -13 -12 -12 -11 -11 -12 -12 -13 -13 -13 -14 -14 -14 -13 -14 -14 -14 -13 -13 -13 -13 -13 -14 -14 -14 -14 -14 -14 -14 -14 -14 -13 -13 -13
-14 -14 -14 -13 -13 -13 -13 -13 -13 -13 -14 -15 -15 -15 -14 -14 -13 -13 -13 -13 -13 -12 -12 -11 -12 -13 -13 -13 -14 -14 -14 -14 -15 -14 -14 -14 -14 -13 -13 -13 -13 -14 -14 -14 -14 -14 -14 -14 -14 -14 -14 -14 -14 -13
-14 -14 -14 -14 -13 -13 -13 -13 -13 -14 -14 -15 -15 -15 -15 -15 -14 -14 -14 -13 -12 -12 -12 -12 -13 -13 -13 -14 -14 -15 -15 -15 -14 -14 -14 -14 -14 -13 -14 -14 -14 -14 -14 -14 -14 -14 -14 -14 -15 -15 -15 -15 -14 -14
-14 -14 -14 -14 -13 -13 -13 -13 -13 -14 -14 -15 -15 -15 -15 -15 -15 -14 -13 -12 -12 -12 -12 -13 -13 -14 -14 -15 -15 -15 -15 -14 -14 -15 -15 -14 -14 -14 -14 -14 -14 -14 -14 -14 -14 -14 -14 -14 -14 -15 -14 -14 -15 -15
-15 -14 -14 -14 -14 -13 -13 -13 -13 -14 -14 -15 -15 -16 -15 -14 -14 -13 -12 -12 -13 -13 -13 -13 -14 -14 -15 -15 -15 -15 -15 -15 -15 -15 -15 -14 -14 -14 -15 -15 -15 -15 -15 -14 -14 -14 -15 -15 -15 -15 -15 -15 -14 -14
-15 -15 -15 -14 -14 -13 -13 -13 -13 -14 -15 -15 -15 -15 -15 -14 -13 -13 -13 -13 -13 -13 -14 -14 -14 -14 -15 -16 -16 -16 -15 -15 -14 -14 -14 -14 -15 -15 -15 -15 -15 -15 -15 -15 -15 -15 -15 -15 -15 -15 -15 -14 -14 -14
-15 -15 -14 -14 -14 -13 -13 -13 -14 -14 -15 -15 -15 -14 -14 -14 -13 -13 -13 -13 -14 -14 -14 -14 -15 -15 -15 -15 -15 -15 -15 -15 -15 -15 -15 -15 -15 -15 -15 -15 -14 -14 -15 -15 -15 -15 -15 -15 -15 -15 -15 -14 -14 -15
-15 -15 -14 -14 -14 -14 -13 -14 -14 -15 -15 -14 -12 -13 -13 -13 -14 -14 -14 -14 -14 -14 -15 -15 -16 -15 -16 -16 -15 -15 -15 -15 -15 -15 -15 -15 -15 -15 -15 -14 -14 -15 -15 -15 -15 -15 -15 -15 -15 -15 -15 -15 -15 -15
-15 -15 -14 -14 -14 -14 -13 -14 -14 -15 -14 -12 -11 -11 -12 -12 -13 -13 -14 -14 -14 -14 -15 -15 -16 -16 -16 -16 -14 -14 -15 -15 -15 -15 -15 -15 -15 -15 -15 -15 -15 -15 -15 -15 -15 -15 -15 -15 -15 -15 -15 -15 -15 -14
-16 -15 -15 -14 -14 -14 -13 -14 -15 -14 -13 -12 -11 -12 -12 -12 -13 -13 -13 -14 -14 -15 -15 -16 -16 -15 -14 -14 -15 -15 -15 -16 -16 -15 -15 -15 -15 -16 -16 -16 -15 -15 -15 -15 -15 -15 -16 -16 -16 -16 -16 -15 -15 -15
-15 -15 -15 -14 -14 -14 -14 -14 -15 -15 -13 -12 -12 -12 -12 -12 -13 -13 -13 -14 -14 -15 -15 -15 -13 -13 -14 -15 -15 -16 -16 -15 -15 -16 -16 -16 -16 -15 -15 -15 -15 -15 -15 -15 -15 -15 -16 -16 -15 -16 -16 -16 -16 -16
-15 -15 -15 -15 -15 -15 -15 -15 -15 -14 -13 -13 -13 -13 -13 -13 -13 -13 -13 -14 -15 -14 -14 -13 -13 -14 -15 -15 -15 -15 -15 -15 -16 -16 -16 -15 -15 -15 -15 -15 -15 -15 -15 -15 -15 -15 -15 -15 -15 -15 -15 -15 -16 -16
-16 -16 -16 -16 -16 -16 -16 -15 -15 -14 -14 -13 -13 -13 -13 -13 -12 -13 -13 -13 -13 -13 -13 -13 -14 -15 -15 -15 -15 -15 -15 -16 -15 -15 -15 -15 -15 -15 -15 -15 -15 -15 -15 -15 -15 -15 -15 -15 -14 -14 -15 -15 -15 -15
-16 -16 -16 -16 -16 -16 -16 -15 -15 -15 -15 -14 -14 -14 -13 -13 -13 -13 -13 -13 -12 -13 -13 -14 -14 -14 -15 -15 -15 -15 -15 -15 -15 -15 -15 -15 -15 -15 -15 -15 -15 -15 -15 -14 -14 -14 -14 -14 -14 -14 -15 -15 -15 -15
-16 -16 -17 -17 -17 -16 -16 -16 -15 -15 -15 -15 -15 -14 -14 -14 -14 -14 -13 -13 -13 -14 -14 -14 -15 -15 -15 -15 -15 -14 -14 -14 -14 -14 -14 -15 -15 -14 -14 -14 -14 -14 -14 -13 -13 -13 -14 -14 -14 -14 -15 -15 -15 -15
-16 -16 -16 -17 -16 -16 -16 -16 -15 -15 -15 -15 -15 -15 -15 -15 -15 -14 -14 -13 -14 -14 -15 -15 -15 -15 -15 -14 -14 -14 -14 -14 -14 -14 -14 -15 -14 -14 -13 -13 -14 -14 -14 -13 -13 -13 -13 -14 -14 -15 -15 -15 -15 -15
-16 -16 -16 -15 -16 -16 -15 -15 -15 -15 -15 -15 -15 -15 -15 -15 -15 -15 -14 -14 -14 -15 -15 -15 -15 -15 -14 -14 -14 -14 -14 -14 -14 -14 -14 -14 -14 -13 -13 -12 -12 -13 -13 -13 -13 -13 -13 -14 -14 -15 -15 -15 -15 -14
-15 -15 -15 -15 -15 -15 -15 -15 -15 -15 -15 -15 -14 -14 -15 -16 -16 -15 -14 -14 -14 -15 -15 -14 -15 -15 -14 -14 -14 -14 -14 -14 -14 -14 -13 -13 -13 -13 -13 -13 -13 -13 -13 -13 -13 -13 -14 -14 -14 -14 -14 -14 -14 -14
-15 -15 -15 -15 -15 -15 -15 -15 -15 -15 -15 -15 -15 -15 -16 -15 -15 -14 -14 -14 -15 -14 -14 -14 -14 -14 -14 -14 -14 -14 -14 -13 -13 -13 -13 -13 -13 -13 -13 -13 -13 -14 -14 -14 -14 -14 -14 -14 -14 -14 -14 -14 -14 -14
-15 -15 -15 -15 -15 -15 -15 -15 -15 -15 -15 -15 -15 -15 -15 -15 -14 -14 -14 -14 -14 -14 -14 -14 -14 -14 -14 -14 -14 -14 -14 -13 -13 -13 -13 -13 -13 -13 -13 -13 -13 -13 -13 -13 -14 -13 -13 -13 -13 -13 -13 -13 -13 -13
-15 -15 -15 -15 -15 -15 -15 -15 -15 -15 -16 -16 -16 -15 -15 -14 -14 -14 -14 -14 -14 -14 -14 -14 -14 -14 -14 -14 -13 -14 -14 -14 -13 -13 -13 -13 -13 -12 -12 -13 -13 -13 -13 -13 -13 -13 -13 -13 -12 -12 -12 -12 -12 -12
-16 -16 -15 -15 -15 -15 -16 -16 -16 -16 -16 -15 -15 -14 -14 -13 -13 -14 -14 -14 -13 -14 -14 -14 -15 -14 -14 -14 -13 -13 -13 -14 -13 -13 -13 -13 -13 -13 -13 -13 -13 -13 -12 -12 -12 -12 -12 -12 -12 -12 -12 -12 -11 -11
-16 -16 -16 -16 -16 -16 -16 -16 -15 -15 -14 -14 -13 -13 -13 -14 -13 -13 -13 -14 -14 -14 -15 -14 -14 -14 -14 -14 -14 -14 -13 -13 -13 -13 -13 -13 -13 -12 -12 -12 -12 -12 -12 -12 -12 -12 -12 -12 -12 -11 -11 -11 -12 -12
-15 -15 -15 -16 -16 -15 -15 -15 -14 -14 -14 -13 -13 -13 -13 -13 -13 -13 -14 -14 -15 -14 -14 -14 -14 -14 -14 -14 -13 -13 -13 -13 -13 -13 -13 -13 -13 -12 -12 -12 -12 -12 -12 -12 -12 -12 -11 -11 -11 -11 -10 -11 -11 -11
Height
3075 3077 3078 3080 3080 3081 3082 3084 3084 3087 3089 3090 3091 3091 3091 3091 3092 3091 3091 3090 3089 3088 3089 3086 3085 3084 3083 3081 3080 3080 3079 3075 3077 3078 3074 3070 3066 3065 3063 3062 3062 3061 3060 3056 3054 3051 3045 3042 3040 3040 3034 3031 3028 3024
3064 3068 3070 3069 3072 3071 3072 3074 3076 3076 3079 3081 3082 3084 3084 3083 3082 3082 3083 3081 3082 3081 3082 3081 3080 3077 3076 3074 3073 3074 3074 3073 3070 3071 3069 3065 3063 3060 3058 3056 3057 3055 3056 3052 3051 3044 3042 3036 3032 3030 3025 3021 3017 3014
3055 3056 3059 3060 3061 3063 3065 3065 3067 3069 3070 3071 3072 3075 3077 3076 3074 3074 3074 3072 3074 3074 3071 3073 3072 3071 3069 3067 3067 3067 3067 3065 3065 3064 3061 3058 3054 3053 3051 3046 3044 3044 3044 3040 3039 3030 3031 3027 3025 3023 3018 3012 3007 3003
3044 3046 3049 3052 3053 3054 3056 3058 3058 3062 3060 3062 3064 3065 3065 3067 3066 3064 3065 3064 3068 3066 3065 3065 3066 3064 3062 3062 3062 3060 3059 3056 3055 3055 3052 3047 3047 3045 3040 3040 3035 3035 3033 3029 3020 3019 3019 3013 3011 3008 3003 3000 2997 2995
3036 3038 3039 3043 3045 3045 3046 3049 3049 3051 3051 3053 3053 3055 3056 3057 3057 3059 3057 3058 3060 3064 3059 3060 3060 3057 3056 3056 3056 3054 3051 3050 3049 3045 3043 3040 3037 3036 3032 3029 3020 3027 3023 3018 3006 3008 3008 2996 2997 2995 2991 2988 2987 2983
3026 3029 3030 3034 3036 3040 3039 3041 3042 3041 3044 3044 3046 3047 3048 3049 3049 3052 3051 3052 3055 3054 3053 3053 3054 3050 3050 3049 3050 3049 3046 3043 3041 3037 3035 3032 3031 3029 3021 3012 3013 3015 3013 3008 2999 2996 2992 2987 2983 2982 2978 2977 2975 2973
3018 3020 3024 3024 3030 3032 3033 3035 3036 3037 3038 3036 3038 3042 3040 3041 3043 3045 3046 3048 3049 3048 3048 3049 3046 3045 3046 3046 3046 3044 3041 3038 3037 3032 3026 3026 3023 3022 3013 3007 3006 3005 3000 2996 2992 2988 2983 2981 2975 2973 2970 2969 2969 2968
3009 3011 3015 3018 3021 3025 3027 3028 3029 3032 3033 3032 3032 3036 3036 3034 3038 3040 3041 3043 3044 3043 3044 3043 3043 3042 3041 3038 3039 3038 3036 3031 3028 3022 3019 3017 3014 3011 3005 3003 3001 2998 2994 2989 2982 2978 2975 2972 2968 2965 2967 2967 2965 2963
2998 3003 3006 3010 3014 3017 3019 3021 3024 3026 3026 3027 3028 3029 3030 3030 3033 3035 3037 3038 3039 3041 3038 3038 3038 3036 3033 3032 3032 3031 3027 3021 3018 3014 3014 3011 3007 3003 3000 2998 2995 2993 2988 2983 2978 2973 2970 2967 2964 2964 2963 2961 2958 2954
2989 2992 2997 3002 3006 3009 3012 3015 3017 3019 3022 3021 3022 3024 3024 3026 3028 3032 3031 3032 3032 3032 3032 3030 3031 3031 3031 3029 3026 3026 3019 3016 3010 3008 3004 3001 2997 2997 2995 2993 2990 2986 2983 2980 2975 2971 2967 2964 2962 2959 2955 2952 2948 2944
2981 2984 2987 2992 2997 3002 3005 3008 3011 3013 3013 3015 3017 3019 3020 3022 3025 3026 3027 3027 3027 3026 3025 3025 3026 3026 3026 3025 3023 3021 3016 3012 3004 3002 2999 2994 2991 2992 2990 2987 2984 2981 2977 2974 2971 2965 2962 2958 2953 2949 2944 2941 2937 2933
2973 2975 2978 2983 2989 2992 2996 3000 3003 3005 3009 3013 3014 3015 3018 3019 3020 3022 3020 3022 3021 3021 3020 3021 3022 3022 3021 3020 3017 3014 3011 3007 2997 2994 2992 2985 2985 2984 2982 2980 2978 2974 2970 2966 2962 2956 2951 2947 2943 2938 2933 2929 2925 2921
2964 2967 2970 2973 2979 2984 2986 2992 2995 2999 3003 3007 3009 3012 3014 3014 3013 3013 3012 3013 3014 3015 3017 3018 3017 3017 3016 3016 3013 3010 3004 2996 2990 2984 2979 2977 2977 2976 2975 2972 2968 2965 2959 2953 2948 2944 2939 2934 2930 2926 2921 2917 2912 2907
2955 2958 2962 2965 2969 2975 2978 2984 2988 2992 2996 3001 3004 3005 3006 3004 3002 3004 3007 3010 3011 3012 3013 3013 3013 3013 3011 3009 3005 3000 2995 2990 2984 2978 2973 2972 2971 2969 2965 2962 2957 2951 2946 2941 2936 2932 2926 2921 2916 2913 2908 2904 2900 2895
2946 2950 2953 2956 2961 2967 2971 2976 2980 2985 2989 2992 2996 2994 2992 2995 2997 3000 3003 3006 3007 3008 3009 3008 3008 3007 3004 3001 2997 2992 2987 2978 2972 2968 2967 2966 2963 2958 2953 2948 2943 2938 2934 2928 2923 2918 2913 2908 2903 2899 2896 2892 2889 2884
2937 2941 2943 2949 2953 2960 2963 2970 2971 2976 2980 2984 2983 2982 2983 2988 2992 2995 2998 3001 3003 3003 3003 3003 3001 2998 2994 2992 2986 2981 2975 2966 2963 2962 2960 2956 2951 2946 2941 2936 2932 2927 2921 2916 2911 2907 2901 2896 2891 2886 2883 2880 2877 2873
2930 2933 2936 2941 2946 2951 2956 2960 2961 2966 2972 2973 2973 2973 2978 2982 2987 2991 2993 2996 2997 2997 2997 2996 2993 2992 2987 2981 2974 2971 2964 2960 2956 2953 2949 2944 2939 2933 2929 2924 2919 2914 2909 2905 2900 2895 2890 2885 2881 2876 2871 2868 2865 2861
2925 2929 2933 2936 2939 2943 2946 2949 2953 2959 2962 2965 2967 2967 2972 2977 2981 2985 2987 2990 2991 2990 2990 2987 2985 2979 2976 2967 2961 2960 2955 2950 2947 2941 2936 2932 2927 2922 2917 2912 2907 2903 2897 2893 2888 2883 2877 2872 2867 2862 2858 2854 2848 2846
2923 2927 2930 2932 2934 2937 2940 2941 2946 2950 2954 2960 2959 2964 2967 2970 2974 2978 2981 2983 2983 2983 2980 2976 2973 2964 2960 2956 2953 2948 2944 2940 2933 2929 2925 2922 2917 2912 2906 2902 2896 2891 2886 2880 2874 2868 2862 2857 2851 2846 2841 2837 2833 2830
2922 2924 2925 2928 2927 2928 2932 2936 2942 2946 2951 2954 2954 2957 2961 2964 2968 2971 2973 2974 2975 2973 2969 2964 2958 2955 2951 2947 2944 2939 2934 2931 2925 2917 2913 2910 2907 2901 2894 2889 2882 2876 2869 2863 2857 2852 2846 2840 2837 2832 2828 2824 2819 2816
2921 2923 2923 2923 2925 2926 2930 2932 2936 2944 2946 2947 2949 2952 2955 2957 2960 2963 2965 2966 2964 2959 2956 2953 2948 2945 2943 2938 2934 2931 2926 2923 2918 2913 2905 2895 2894 2888 2880 2874 2867 2860 2853 2847 2841 2836 2833 2828 2824 2821 2817 2813 2810 2807
2918 2921 2922 2923 2926 2928 2930 2933 2935 2937 2943 2944 2946 2947 2949 2952 2954 2956 2957 2955 2950 2949 2947 2944 2939 2936 2933 2930 2928 2925 2920 2915 2910 2904 2898 2891 2882 2876 2868 2862 2854 2847 2840 2834 2829 2824 2820 2816 2813 2810 2806 2803 2801 2798
2913 2916 2918 2921 2924 2927 2930 2931 2933 2934 2937 2938 2941 2943 2945 2946 2948 2949 2948 2943 2941 2941 2939 2933 2930 2928 2925 2923 2920 2916 2913 2906 2898 2893 2887 2880 2872 2865 2857 2851 2844 2837 2830 2826 2821 2817 2813 2809 2805 2802 2798 2796 2793 2791
2904 2909 2913 2917 2920 2923 2925 2928 2931 2933 2934 2936 2938 2939 2940 2942 2942 2941 2936 2935 2935 2931 2927 2926 2924 2922 2919 2915 2910 2906 2902 2895 2888 2882 2876 2867 2859 2853 2847 2841 2836 2831 2825 2819 2815 2811 2808 2804 2801 2797 2794 2791 2789 2786
2900 2904 2908 2910 2913 2918 2921 2924 2926 2929 2931 2933 2934 2935 2936 2935 2934 2931 2928 2928 2926 2924 2923 2921 2918 2914 2909 2904 2899 2895 2891 2884 2877 2870 2867 2859 2851 2844 2839 2833 2829 2824 2818 2814 2810 2805 2802 2798 2795 2792 2789 2786 2784 2783
2899 2900 2904 2906 2910 2914 2916 2919 2922 2924 2926 2928 2929 2929 2929 2928 2927 2923 2922 2922 2921 2920 2917 2913 2909 2904 2900 2897 2889 2885 2880 2875 2869 2862 2858 2851 2844 2836 2830 2825 2821 2818 2812 2807 2802 2798 2794 2791 2787 2784 2782 2781 2780 2779
2900 2900 2902 2904 2907 2910 2911 2914 2917 2920 2921 2922 2923 2923 2923 2921 2918 2918 2918 2916 2914 2912 2909 2905 2900 2895 2890 2885 2881 2877 2872 2867 2861 2855 2849 2843 2837 2831 2824 2819 2814 2811 2806 2802 2797 2792 2788 2785 2782 2780 2779 2778 2777 2777
2899 2900 2901 2903 2906 2908 2908 2911 2913 2915 2916 2917 2918 2917 2915 2912 2912 2912 2911 2909 2906 2903 2900 2896 2892 2887 2882 2878 2873 2869 2864 2859 2854 2849 2843 2838 2832 2826 2821 2816 2811 2806 2801 2797 2792 2788 2785 2782 2780 2778 2777 2777 2776 2776
2898 2900 2902 2903 2905 2906 2907 2909 2910 2911 2912 2911 2910 2909 2907 2906 2906 2905 2903 2901 2898 2894 2891 2888 2885 2881 2877 2872 2867 2862 2857 2852 2846 2842 2838 2833 2828 2823 2817 2812 2807 2802 2798 2794 2791 2787 2785 2782 2781 2779 2778 2778 2778 2778
2894 2896 2897 2899 2901 2902 2903 2904 2905 2905 2904 2903 2903 2901 2900 2900 2900 2898 2895 2893 2890 2887 2884 2881 2877 2874 2870 2866 2862 2858 2852 2846 2841 2837 2831 2827 2822 2818 2813 2808 2804 2799 2795 2792 2790 2788 2787 2785 2784 2783 2782 2782 2782 2783
2889 2891 2892 2894 2895 2896 2897 2897 2897 2897 2897 2896 2896 2894 2893 2891 2892 2891 2888 2886 2884 2882 2879 2876 2872 2868 2865 2861 2856 2852 2848 2844 2839 2834 2829 2824 2819 2814 2810 2806 2801 2798 2795 2793 2792 2790 2789 2788 2788 2787 2787 2787 2788 2789
2883 2884 2885 2886 2888 2890 2890 2890 2890 2890 2889 2889 2889 2889 2888 2886 2885 2885 2884 2882 2879 2877 2874 2871 2868 2865 2861 2857 2853 2848 2843 2839 2835 2831 2826 2822 2816 2812 2808 2804 2800 2798 2796 2795 2794 2793 2792 2791 2791 2791 2792 2793 2793 2794
2882 2882 2883 2883 2884 2884 2886 2885 2884 2883 2884 2885 2885 2884 2884 2883 2883 2883 2881 2878 2875 2873 2871 2868 2865 2861 2858 2854 2850 2845 2841 2837 2832 2827 2823 2819 2814 2810 2806 2803 2801 2799 2797 2797 2796 2795 2795 2795 2795 2795 2796 2797 2798 2799
Wind_Speed
31 29 28 33 34 33 33 31 32 31 32 31 26 22 20 20 21 22 23 24 27 27 25 26 25 19 17 20 24 22 24 21 18 17 15 15 15 14 16 19 15 15 12 19 21 21 17 25 21 15 18 25 35 40
27 26 31 35 42 39 38 36 38 34 32 26 23 23 25 25 24 25 27 27 28 26 22 25 23 21 23 24 23 17 20 23 15 14 13 12 14 16 19 27 23 25 27 27 26 31 24 23 28 38 41 40 47 38
30 34 38 37 34 34 32 27 29 25 23 25 26 27 29 29 29 27 27 25 26 26 22 22 12 11 23 19 18 20 20 22 25 27 31 33 31 28 31 36 40 39 35 35 37 46 44 49 50 47 48 50 45 40
30 31 34 35 41 44 39 36 36 37 37 36 35 34 31 29 27 26 25 23 23 24 22 22 6 9 17 22 24 24 22 21 24 26 31 35 35 27 36 37 44 44 37 38 48 54 54 50 39 38 42 37 35 37
29 30 31 30 25 28 34 38 37 34 31 32 32 30 27 25 23 22 21 21 20 19 18 21 19 12 11 17 18 16 17 20 21 24 28 34 37 32 37 39 49 43 42 43 50 47 42 51 46 42 40 40 40 43
26 28 28 27 22 25 26 24 24 25 25 25 26 25 23 20 20 20 19 19 17 16 18 18 6 8 6 11 13 17 23 26 25 26 29 34 36 29 25 38 44 44 41 40 41 35 39 39 41 40 37 33 32 30
26 22 24 23 24 25 26 24 23 25 22 23 23 22 20 19 18 20 17 14 13 13 14 10 5 4 10 12 16 16 17 21 26 29 33 33 31 27 36 41 35 26 27 32 34 34 33 31 34 31 19 14 15 18
34 27 24 23 24 27 27 25 26 26 24 18 15 19 20 18 20 19 16 14 12 12 11 7 9 11 10 11 12 15 18 23 29 27 28 21 23 25 29 27 24 27 28 31 30 28 34 36 18 5 12 16 20 21
30 34 28 27 25 25 28 27 26 24 21 20 20 14 19 19 20 17 16 15 13 13 14 16 18 14 11 18 19 22 24 27 24 22 25 21 23 26 24 19 20 21 25 28 26 28 24 20 12 13 17 23 28 31
25 29 35 30 28 25 26 30 24 21 20 20 19 19 19 19 17 16 16 17 18 19 22 24 19 11 14 18 22 21 15 18 20 20 19 20 25 25 20 22 20 22 24 25 21 23 22 24 29 29 30 33 35 37
24 25 32 36 27 29 28 25 22 19 23 22 22 20 17 15 15 14 12 9 9 10 16 15 5 8 15 20 21 14 15 14 15 22 20 24 26 19 26 24 19 25 21 22 29 34 34 40 34 37 39 40 40 38
25 25 26 39 35 30 30 26 24 23 20 21 20 18 16 16 13 9 10 9 11 11 14 8 6 13 18 20 19 14 17 9 13 22 22 29 36 22 20 22 24 28 29 35 42 41 41 42 36 39 45 45 43 43
28 26 27 29 38 33 33 27 25 22 20 22 20 17 11 13 15 11 14 12 7 6 7 10 11 17 21 15 13 14 9 18 24 22 29 26 28 26 24 30 31 38 41 41 42 41 40 41 40 42 44 43 42 44
29 27 27 28 35 37 32 29 29 27 24 24 23 18 11 10 12 23 23 19 12 11 11 15 16 21 25 20 14 10 18 17 14 24 35 30 29 31 35 37 39 40 41 42 42 42 42 42 41 42 41 38 42 42
29 27 27 28 33 40 32 32 35 31 29 29 21 12 20 26 25 14 10 13 11 11 14 18 22 28 24 12 10 9 8 10 15 28 30 36 38 41 42 41 43 44 44 44 43 42 41 39 40 41 40 40 40 39
27 29 29 26 30 39 39 37 40 36 35 29 25 26 25 21 19 19 15 14 14 15 17 19 24 14 16 9 13 15 18 36 44 41 40 44 45 45 44 44 46 44 43 42 40 37 36 35 36 37 36 35 34 32
22 23 21 22 28 31 39 44 46 41 35 38 37 39 37 33 29 23 20 18 18 17 18 22 19 15 15 14 20 23 38 44 42 43 47 43 45 48 48 49 48 47 46 42 41 42 43 43 43 43 42 37 35 36
20 18 14 14 20 22 42 47 49 34 39 39 33 37 32 25 23 21 20 18 17 18 21 27 31 34 26 36 48 45 45 42 43 41 41 43 47 47 45 44 45 44 43 44 47 49 50 49 49 49 48 47 46 44
13 14 14 15 26 27 48 51 55 28 36 31 37 33 31 29 25 23 22 22 25 24 27 33 27 43 48 46 46 45 45 42 41 43 43 43 40 42 44 44 46 48 50 51 52 51 51 51 50 49 48 47 47 46
12 11 12 17 16 20 30 23 52 32 33 37 37 36 33 31 29 28 28 29 29 28 31 40 50 47 45 40 34 36 38 41 42 39 40 43 45 47 50 51 52 50 52 54 52 46 43 41 38 36 35 34 35 35
13 12 13 14 12 10 7 7 29 45 42 39 38 35 35 36 34 33 32 28 29 36 43 46 45 38 29 31 33 35 36 31 32 37 45 53 53 54 53 56 54 48 48 48 46 43 39 37 35 33 31 30 30 30
14 15 18 16 13 13 12 8 9 18 28 37 40 41 40 38 37 37 35 35 42 45 43 38 31 29 32 32 24 24 29 34 39 45 48 50 52 56 50 48 49 49 45 41 38 37 36 34 32 31 30 29 27 25
21 20 21 22 18 11 7 10 13 14 16 22 28 34 36 38 39 39 39 44 38 36 32 29 28 25 22 25 29 33 36 39 43 46 48 49 49 46 48 48 42 39 36 32 30 29 28 26 24 23 23 21 20 19
23 27 27 18 20 12 12 16 9 8 9 12 15 19 24 27 27 29 36 34 31 23 21 17 15 20 26 32 36 38 39 42 46 44 45 47 46 46 44 39 35 31 28 28 26 26 25 24 21 20 19 18 17 17
23 20 23 23 20 21 15 11 12 13 13 13 17 18 19 19 21 28 33 32 13 10 11 15 20 26 33 37 40 41 41 43 42 45 42 43 43 41 38 35 32 26 25 26 26 27 27 26 23 20 17 15 15 14
5 8 15 23 25 23 28 27 25 23 21 18 14 16 18 21 23 21 24 5 8 13 18 23 28 33 36 38 42 42 40 37 42 42 38 37 36 38 37 35 31 26 27 28 30 30 30 27 23 18 13 11 10 9
4 4 16 23 17 20 25 24 20 17 14 13 15 15 16 14 16 16 10 11 15 19 24 28 32 37 41 41 38 35 37 39 36 35 34 33 35 33 32 32 31 29 28 29 29 28 26 22 16 11 8 6 6 5
6 7 12 15 13 10 17 18 20 19 17 18 15 17 11 11 18 17 15 16 21 25 29 32 36 36 33 31 35 38 32 30 31 31 29 29 29 26 26 25 25 26 27 26 25 24 20 15 11 8 6 4 3 1
15 10 9 10 11 13 15 17 18 18 17 17 18 18 20 21 17 15 18 22 26 29 32 30 26 27 31 33 31 28 28 29 29 27 25 25 23 21 21 22 22 22 22 19 14 14 12 10 8 6 4 4 6 8
21 20 20 18 17 19 20 20 19 19 17 17 18 19 20 17 15 19 23 25 26 24 23 24 28 28 24 22 23 24 25 25 27 27 27 26 25 23 23 22 21 19 17 12 10 9 9 8 8 8 8 10 12 13
22 22 23 24 22 17 15 17 18 18 19 19 17 19 18 19 18 19 16 14 18 19 20 23 22 22 23 23 24 22 21 23 24 26 26 27 26 24 23 22 19 17 12 9 9 8 7 7 8 9 10 11 12 13
2 6 9 10 8 10 12 11 11 12 13 15 14 15 17 20 14 4 9 14 16 16 18 16 18 20 21 22 23 24 26 26 26 24 24 24 24 24 24 22 18 14 8 7 6 6 6 6 8 10 11 11 12 12
2 2 2 5 7 7 6 8 10 13 12 10 7 6 9 7 5 8 12 13 13 12 14 17 18 20 21 22 24 25 25 25 25 24 24 24 25 25 24 19 14 10 5 4 4 5 6 6 7 8 9 10 10 8
Wind_Direction
252 247 250 248 267 265 267 264 270 267 275 277 276 274 272 273 276 277 274 278 280 284 284 283 282 279 275 277 281 284 290 288 280 269 265 269 264 262 257 260 263 257 257 260 254 252 270 273 268 266 272 271 292 295
242 238 238 240 257 244 256 255 263 261 267 265 267 270 273 275 276 276 275 277 280 280 277 277 279 277 278 274 271 272 279 273 258 259 252 260 258 266 273 274 268 262 269 281 267 261 261 271 275 287 294 299 306 302
245 239 234 239 250 260 258 255 257 254 255 261 266 271 275 276 277 275 272 273 273 275 278 280 280 260 281 267 260 273 278 271 270 269 271 269 264 269 269 275 282 281 285 271 273 272 268 274 280 283 283 288 292 291
248 249 247 249 251 249 255 258 259 265 269 273 272 271 272 272 269 267 267 270 269 274 277 279 240 269 279 285 278 279 280 279 279 277 270 270 271 277 279 280 283 284 282 282 278 282 291 291 294 295 297 294 290 291
251 251 252 251 253 259 261 261 264 264 264 262 262 263 262 262 262 260 262 263 262 264 269 271 286 284 269 278 279 282 289 288 289 282 278 274 279 282 287 287 281 292 294 288 292 299 296 295 300 298 293 291 291 293
251 249 250 251 242 249 258 260 265 259 256 256 258 258 258 256 254 254 251 253 261 270 277 291 281 262 259 311 300 290 291 298 298 294 291 285 291 298 286 286 291 298 303 301 300 299 294 288 287 288 290 290 286 278
248 253 249 242 233 238 251 261 264 261 259 256 256 256 253 247 242 231 238 256 261 271 283 294 287 275 302 301 297 297 296 298 299 297 292 294 295 291 283 285 310 314 304 304 296 293 292 288 287 285 285 303 301 288
245 239 247 244 233 232 239 251 259 263 269 258 243 250 247 240 223 225 236 246 259 262 269 269 263 300 313 327 325 325 321 324 311 303 300 304 297 291 283 310 304 308 333 327 332 287 283 293 286 299 292 287 291 293
247 235 233 244 240 236 238 245 256 257 263 240 246 235 243 228 221 228 242 253 253 251 263 270 284 301 318 328 319 317 316 312 309 300 305 293 289 282 304 312 322 331 322 328 330 350 332 311 321 325 312 294 291 290
254 244 227 233 240 238 241 244 253 257 245 237 223 233 235 227 230 238 247 252 255 259 264 271 286 273 313 323 319 319 304 315 292 303 296 279 283 303 319 317 314 330 321 305 316 316 320 315 308 305 299 297 297 296
257 250 234 227 233 239 241 242 241 243 233 228 235 229 228 230 232 235 235 232 233 252 265 271 229 292 312 320 317 307 298 297 280 302 279 278 285 292 313 312 308 316 304 308 307 295 302 307 299 299 298 299 300 300
258 252 244 228 225 239 227 234 235 231 229 232 240 227 223 223 226 224 217 217 235 241 244 215 269 304 314 323 314 297 284 267 272 292 284 276 293 309 312 311 307 302 290 293 297 296 292 294 291 287 291 298 298 294
254 252 244 237 226 229 222 221 219 215 220 226 223 221 222 221 221 215 205 209 203 231 252 240 276 301 317 315 286 280 255 274 287 275 279 287 303 312 307 308 300 297 294 290 289 292 295 295 293 291 293 294 298 296
248 246 240 237 223 225 213 215 214 212 214 216 219 218 214 212 218 231 247 260 267 269 270 266 280 300 306 299 282 255 277 275 256 266 282 308 307 309 308 308 305 300 303 302 300 300 300 301 299 296 292 293 297 298
245 243 237 233 220 217 214 212 209 206 211 212 212 218 230 232 232 229 222 266 280 285 282 279 290 296 301 271 257 250 252 247 276 287 296 312 309 311 310 305 303 305 307 308 307 305 303 300 298 298 297 294 296 298
243 238 235 224 223 213 220 210 201 205 212 212 223 228 233 236 239 246 250 268 284 281 282 288 289 289 286 257 248 253 263 277 294 290 293 310 310 308 304 302 305 307 311 311 309 310 313 315 314 310 305 301 300 301
227 234 208 222 217 218 218 197 192 199 206 220 239 247 246 253 255 257 265 278 288 288 283 281 271 284 272 260 269 272 288 300 300 299 303 306 303 305 306 304 307 308 308 306 308 312 312 310 309 308 307 305 301 298
195 190 202 214 224 209 200 199 192 200 213 222 242 251 255 258 262 265 268 276 277 287 292 276 277 273 260 272 288 301 304 310 308 305 304 303 305 307 308 306 304 306 305 306 307 306 306 304 301 299 299 299 297 297
179 205 217 213 208 204 198 195 193 198 214 222 241 250 253 260 264 268 272 279 289 288 280 278 273 279 291 298 302 304 309 309 305 301 301 304 308 309 308 308 306 305 304 302 301 302 302 300 298 297 296 293 289 290
195 213 230 215 189 187 182 197 203 199 210 227 240 245 253 259 265 271 276 279 285 282 271 277 292 304 307 308 305 304 299 298 301 299 300 304 307 309 308 309 308 308 305 303 304 305 306 305 306 307 301 298 299 299
210 215 239 252 251 205 171 159 197 214 219 232 241 248 255 261 269 277 284 286 276 276 291 300 305 306 300 296 294 296 298 299 296 299 302 304 309 310 312 310 311 313 313 311 309 309 308 307 306 304 302 299 298 298
224 223 234 241 253 274 281 258 222 208 228 238 242 250 258 265 272 277 282 283 287 291 297 302 298 291 289 290 294 291 293 294 295 297 301 305 310 309 314 318 318 317 315 314 314 312 312 311 308 306 304 304 305 306
245 236 226 232 237 231 244 246 224 236 230 242 249 253 261 264 264 273 285 285 292 300 296 286 285 289 288 291 291 293 298 302 304 306 309 311 312 317 319 319 319 318 317 317 313 313 317 321 322 317 313 310 307 306
245 232 222 221 218 217 226 197 205 233 239 243 251 249 259 262 268 275 279 287 305 297 277 276 278 286 287 288 293 300 307 309 310 311 313 315 319 322 321 322 322 322 317 318 320 320 322 322 321 320 321 318 314 311
175 168 199 194 207 200 188 223 242 245 248 253 258 258 261 267 269 278 283 300 288 252 268 281 287 292 296 298 303 309 314 314 313 313 320 318 319 319 321 322 325 325 318 318 318 318 320 321 319 316 313 309 309 314
147 136 180 205 215 216 230 239 246 251 259 257 244 249 265 270 270 268 291 300 261 284 296 298 301 300 299 304 310 314 314 314 314 316 319 320 321 320 319 321 324 326 321 320 320 320 321 325 327 323 313 301 301 307
161 158 209 217 218 236 235 238 240 232 222 237 261 272 264 251 259 276 293 285 290 296 296 299 300 302 306 311 312 312 313 314 314 318 322 323 323 320 317 318 320 321 321 321 321 322 325 331 331 326 322 312 306 307
200 183 191 191 201 215 222 218 209 216 229 241 263 269 246 252 280 297 288 293 294 293 295 299 302 306 310 311 313 314 316 316 319 322 324 325 325 322 318 317 316 319 322 325 324 325 331 340 343 342 338 330 312 322
218 210 203 205 209 212 219 221 227 242 267 280 281 274 273 276 286 289 290 289 291 297 301 305 309 310 310 311 311 315 318 321 325 327 328 331 331 331 330 329 329 329 330 332 331 333 353 6 13 18 31 67 96 112
232 236 238 240 248 256 265 267 277 283 275 274 278 275 273 279 285 282 286 293 296 297 304 310 311 311 315 319 323 328 326 328 333 335 337 339 340 339 340 340 341 342 344 355 12 20 29 31 43 55 82 100 109 113
248 244 246 250 256 266 272 267 265 265 265 266 266 272 282 285 284 294 294 290 295 301 307 313 318 323 326 327 330 333 337 335 334 335 337 339 340 341 345 348 349 355 7 23 30 34 44 60 69 81 97 110 115 119
269 245 246 253 262 266 266 266 261 252 247 250 257 270 282 290 309 311 306 313 312 315 317 325 328 331 334 340 340 338 337 339 338 339 340 340 343 345 350 354 355 1 14 28 38 48 67 86 95 104 113 123 126 121
4 328 265 245 233 226 219 231 230 242 252 264 271 284 299 296 299 323 337 346 343 339 340 337 337 340 344 347 345 342 342 340 340 343 346 347 346 344 348 353 355 360 9 36 58 74 94 113 120 120 128 141 148 144